Zurück zum Katalog

COSMOS 2251 DEB

AktivLEO
NORAD 34967·DEBRIS·🇷🇺 Russia

Gestartet Jun 16, 1993 von Plesetsk Cosmodrome

Loading…

Nächste Überflüge (nächste 24 Stunden)

TLE

AktuellSource: Space-Track

Epoche: Sep 13, 2026, 19:54 UTC

1 34967U 93036AEW 26256.82934791  .00001123  00000-0  32488-3 0  9999
2 34967  73.9901 100.1922 0039378 183.1222 176.9696 14.45257807689307

Verfolge COSMOS 2251 DEB in Echtzeit mit AllMySat

Download on the App Store